Time,TemperatureF,DewpointF,PressureIn,WindDirection,WindDirectionDegrees,WindSpeedMPH,WindSpeedGustMPH,Humidity,HourlyPrecipIn,Conditions,Clouds,dailyrainin,SoftwareType,DateUTC
2013-02-15 00:02:00,19.7,14.0,30.31,WNW,290,8.0,9.0,78,0.00,,---,0.00,VWS V14.01,2013-02-15 06:02:00,
2013-02-15 00:08:00,19.5,13.8,30.31,WNW,292,6.0,10.0,78,0.00,,---,0.00,VWS V14.01,2013-02-15 06:08:00,
2013-02-15 00:15:00,19.1,13.7,30.31,NW,323,10.0,14.0,79,0.00,,---,0.00,VWS V14.01,2013-02-15 06:15:00,
2013-02-15 00:21:00,19.0,13.3,30.32,NW,317,8.0,15.0,78,0.00,,---,0.00,VWS V14.01,2013-02-15 06:21:00,
2013-02-15 00:27:00,18.9,13.2,30.32,West,259,9.0,15.0,78,0.00,,---,0.00,VWS V14.01,2013-02-15 06:27:00,
2013-02-15 00:33:00,18.7,12.7,30.32,NW,304,12.0,12.0,77,0.00,,---,0.00,VWS V14.01,2013-02-15 06:33:00,
2013-02-15 00:39:00,18.5,12.5,30.32,WNW,289,4.0,12.0,77,0.00,,---,0.00,VWS V14.01,2013-02-15 06:39:00,
2013-02-15 00:45:00,18.2,12.5,30.32,NW,321,9.0,12.0,78,0.00,,---,0.00,VWS V14.01,2013-02-15 06:45:00,
2013-02-15 00:51:00,18.1,12.1,30.32,NW,308,4.0,12.0,77,0.00,,---,0.00,VWS V14.01,2013-02-15 06:51:00,
2013-02-15 00:57:00,17.9,11.9,30.32,WNW,303,10.0,12.0,77,0.00,,---,0.00,VWS V14.01,2013-02-15 06:57:00,
2013-02-15 01:03:00,17.7,11.4,30.33,NW,318,9.0,12.0,76,0.00,,---,0.00,VWS V14.01,2013-02-15 07:03:00,
2013-02-15 01:09:00,17.6,11.3,30.33,WNW,287,5.0,12.0,76,0.00,,---,0.00,VWS V14.01,2013-02-15 07:09:00,
2013-02-15 01:15:00,17.4,11.1,30.33,NW,313,4.0,12.0,76,0.00,,---,0.00,VWS V14.01,2013-02-15 07:15:00,
2013-02-15 01:21:00,17.3,11.3,30.33,NW,315,2.0,12.0,77,0.00,,---,0.00,VWS V14.01,2013-02-15 07:21:00,
2013-02-15 01:27:00,17.2,11.2,30.34,NW,310,1.0,12.0,77,0.00,,---,0.00,VWS V14.01,2013-02-15 07:27:00,
2013-02-15 01:33:00,17.2,11.2,30.33,NW,321,8.0,9.0,77,0.00,,---,0.00,VWS V14.01,2013-02-15 07:33:00,
2013-02-15 01:39:00,17.2,11.2,30.33,WNW,292,3.0,9.0,77,0.00,,---,0.00,VWS V14.01,2013-02-15 07:39:00,
2013-02-15 01:45:00,17.1,11.1,30.33,NNW,327,8.0,10.0,77,0.00,,---,0.00,VWS V14.01,2013-02-15 07:45:00,
2013-02-15 01:51:00,17.1,11.1,30.33,NW,311,3.0,10.0,77,0.00,,---,0.00,VWS V14.01,2013-02-15 07:51:00,
2013-02-15 01:57:00,17.1,11.1,30.34,WNW,298,0.0,12.0,77,0.00,,---,0.00,VWS V14.01,2013-02-15 07:57:00,
2013-02-15 02:03:00,17.0,11.1,30.34,NW,321,8.0,11.0,77,0.00,,---,0.00,VWS V14.01,2013-02-15 08:03:00,
2013-02-15 02:09:00,16.8,10.9,30.33,WNW,300,4.0,11.0,77,0.00,,---,0.00,VWS V14.01,2013-02-15 08:09:00,
2013-02-15 02:15:00,16.7,11.1,30.34,WNW,284,6.0,11.0,78,0.00,,---,0.00,VWS V14.01,2013-02-15 08:15:00,
2013-02-15 02:21:00,16.6,11.2,30.35,West,280,5.0,11.0,79,0.00,,---,0.00,VWS V14.01,2013-02-15 08:21:00,
2013-02-15 02:27:00,16.5,11.1,30.35,NW,306,3.0,11.0,79,0.00,,---,0.00,VWS V14.01,2013-02-15 08:27:00,
2013-02-15 02:34:00,16.4,11.3,30.35,West,273,3.0,6.0,80,0.00,,---,0.00,VWS V14.01,2013-02-15 08:34:00,
2013-02-15 02:40:00,16.3,11.2,30.35,NW,307,5.0,6.0,80,0.00,,---,0.00,VWS V14.01,2013-02-15 08:40:00,
2013-02-15 02:46:00,16.2,11.1,30.35,WNW,295,5.0,7.0,80,0.00,,---,0.00,VWS V14.01,2013-02-15 08:46:00,
2013-02-15 02:52:00,16.2,11.1,30.35,West,275,6.0,7.0,80,0.00,,---,0.00,VWS V14.01,2013-02-15 08:52:00,
2013-02-15 02:58:00,16.2,11.4,30.36,WNW,300,1.0,7.0,81,0.00,,---,0.00,VWS V14.01,2013-02-15 08:58:00,
2013-02-15 03:04:00,16.2,11.4,30.35,WNW,283,5.0,8.0,81,0.00,,---,0.00,VWS V14.01,2013-02-15 09:04:00,
2013-02-15 03:10:00,16.2,11.4,30.36,WNW,291,4.0,9.0,81,0.00,,---,0.00,VWS V14.01,2013-02-15 09:10:00,
2013-02-15 03:16:00,16.2,11.7,30.36,WNW,291,4.0,9.0,82,0.00,,---,0.00,VWS V14.01,2013-02-15 09:16:00,
2013-02-15 03:22:00,16.1,11.6,30.36,WNW,292,2.0,9.0,82,0.00,,---,0.00,VWS V14.01,2013-02-15 09:22:00,
2013-02-15 03:28:00,15.8,11.0,30.36,WNW,288,0.0,9.0,81,0.00,,---,0.00,VWS V14.01,2013-02-15 09:28:00,
2013-02-15 03:34:00,15.4,10.6,30.36,WNW,288,2.0,2.0,81,0.00,,---,0.00,VWS V14.01,2013-02-15 09:34:00,
2013-02-15 03:40:00,14.9,10.1,30.36,West,265,0.0,3.0,81,0.00,,---,0.00,VWS V14.01,2013-02-15 09:40:00,
2013-02-15 03:46:00,14.6,10.1,30.36,West,266,2.0,3.0,82,0.00,,---,0.00,VWS V14.01,2013-02-15 09:46:00,
2013-02-15 03:52:00,14.5,10.3,30.36,West,265,2.0,3.0,83,0.00,,---,0.00,VWS V14.01,2013-02-15 09:52:00,
2013-02-15 03:58:00,14.3,10.1,30.36,West,266,3.0,3.0,83,0.00,,---,0.00,VWS V14.01,2013-02-15 09:58:00,
2013-02-15 04:04:00,14.1,9.9,30.37,West,267,0.0,3.0,83,0.00,,---,0.00,VWS V14.01,2013-02-15 10:04:00,
2013-02-15 04:10:00,13.9,10.0,30.36,West,267,1.0,3.0,84,0.00,,---,0.00,VWS V14.01,2013-02-15 10:10:00,
2013-02-15 04:16:00,13.7,9.8,30.36,West,267,1.0,4.0,84,0.00,,---,0.00,VWS V14.01,2013-02-15 10:16:00,
2013-02-15 04:22:00,13.5,9.6,30.37,West,272,1.0,4.0,84,0.00,,---,0.00,VWS V14.01,2013-02-15 10:22:00,
2013-02-15 04:28:00,13.4,9.7,30.37,West,272,1.0,4.0,85,0.00,,---,0.00,VWS V14.01,2013-02-15 10:28:00,
2013-02-15 04:34:00,13.3,9.6,30.37,West,272,1.0,2.0,85,0.00,,---,0.00,VWS V14.01,2013-02-15 10:34:00,
2013-02-15 04:40:00,13.2,9.6,30.37,West,272,0.0,3.0,85,0.00,,---,0.00,VWS V14.01,2013-02-15 10:40:00,
2013-02-15 04:46:00,12.8,9.1,30.37,West,272,0.0,3.0,85,0.00,,---,0.00,VWS V14.01,2013-02-15 10:46:00,
2013-02-15 04:52:00,12.5,8.9,30.37,West,272,1.0,3.0,85,0.00,,---,0.00,VWS V14.01,2013-02-15 10:52:00,
2013-02-15 04:59:00,12.3,8.7,30.38,West,272,1.0,3.0,85,0.00,,---,0.00,VWS V14.01,2013-02-15 10:59:00,
2013-02-15 05:05:00,12.2,8.6,30.38,West,272,1.0,2.0,85,0.00,,---,0.00,VWS V14.01,2013-02-15 11:05:00,
2013-02-15 05:11:00,12.2,8.6,30.38,West,260,1.0,3.0,85,0.00,,---,0.00,VWS V14.01,2013-02-15 11:11:00,
2013-02-15 05:17:00,12.2,8.8,30.38,West,261,1.0,3.0,86,0.00,,---,0.00,VWS V14.01,2013-02-15 11:17:00,
2013-02-15 05:23:00,12.4,9.0,30.38,WNW,296,1.0,3.0,86,0.00,,---,0.00,VWS V14.01,2013-02-15 11:23:00,
2013-02-15 05:29:00,12.6,9.2,30.38,WNW,294,1.0,4.0,86,0.00,,---,0.00,VWS V14.01,2013-02-15 11:29:00,
2013-02-15 05:35:00,12.7,9.3,30.38,West,273,1.0,3.0,86,0.00,,---,0.00,VWS V14.01,2013-02-15 11:35:00,
2013-02-15 05:41:00,12.7,9.3,30.38,West,273,1.0,3.0,86,0.00,,---,0.00,VWS V14.01,2013-02-15 11:41:00,
2013-02-15 05:47:00,12.7,9.3,30.39,West,273,1.0,3.0,86,0.00,,---,0.00,VWS V14.01,2013-02-15 11:47:00,
2013-02-15 05:53:00,12.5,8.9,30.39,West,273,1.0,3.0,85,0.00,,---,0.00,VWS V14.01,2013-02-15 11:53:00,
2013-02-15 05:59:00,12.4,8.8,30.39,West,273,0.0,3.0,85,0.00,,---,0.00,VWS V14.01,2013-02-15 11:59:00,
2013-02-15 06:05:00,12.5,8.9,30.39,West,273,2.0,2.0,85,0.00,,---,0.00,VWS V14.01,2013-02-15 12:05:00,
2013-02-15 06:11:00,12.3,8.7,30.39,West,273,1.0,2.0,85,0.00,,---,0.00,VWS V14.01,2013-02-15 12:11:00,
2013-02-15 06:17:00,12.2,8.6,30.39,West,273,1.0,2.0,85,0.00,,---,0.00,VWS V14.01,2013-02-15 12:17:00,
2013-02-15 06:23:00,12.2,8.6,30.39,West,273,0.0,2.0,85,0.00,,---,0.00,VWS V14.01,2013-02-15 12:23:00,
2013-02-15 06:29:00,12.2,8.6,30.39,West,273,0.0,2.0,85,0.00,,---,0.00,VWS V14.01,2013-02-15 12:29:00,
2013-02-15 06:35:00,12.4,8.8,30.39,West,273,0.0,1.0,85,0.00,,---,0.00,VWS V14.01,2013-02-15 12:35:00,
2013-02-15 06:41:00,12.7,9.3,30.39,WSW,247,1.0,3.0,86,0.00,,---,0.00,VWS V14.01,2013-02-15 12:41:00,
2013-02-15 06:47:00,13.2,9.8,30.39,West,261,0.0,4.0,86,0.00,,---,0.00,VWS V14.01,2013-02-15 12:47:00,
2013-02-15 06:53:00,13.7,10.3,30.39,West,260,1.0,4.0,86,0.00,,---,0.00,VWS V14.01,2013-02-15 12:53:00,
2013-02-15 06:59:00,14.3,10.9,30.39,West,260,1.0,4.0,86,0.00,,---,0.00,VWS V14.01,2013-02-15 12:59:00,
2013-02-15 07:05:00,14.7,11.3,30.39,West,280,0.0,4.0,86,0.00,,---,0.00,VWS V14.01,2013-02-15 13:05:00,
2013-02-15 07:11:00,15.1,11.4,30.39,WSW,248,2.0,5.0,85,0.00,,---,0.00,VWS V14.01,2013-02-15 13:11:00,
2013-02-15 07:17:00,15.3,11.6,30.38,WSW,249,0.0,5.0,85,0.00,,---,0.00,VWS V14.01,2013-02-15 13:17:00,
2013-02-15 07:23:00,15.4,11.4,30.39,WSW,249,0.0,5.0,84,0.00,,---,0.00,VWS V14.01,2013-02-15 13:23:00,
2013-02-15 07:30:00,15.5,11.5,30.39,WSW,249,2.0,5.0,84,0.00,,---,0.00,VWS V14.01,2013-02-15 13:30:00,
2013-02-15 07:36:00,15.5,11.5,30.39,WSW,249,0.0,3.0,84,0.00,,---,0.00,VWS V14.01,2013-02-15 13:36:00,
2013-02-15 07:42:00,15.5,11.3,30.38,WSW,249,0.0,3.0,83,0.00,,---,0.00,VWS V14.01,2013-02-15 13:42:00,
2013-02-15 07:48:00,15.4,11.2,30.39,WSW,249,0.0,3.0,83,0.00,,---,0.00,VWS V14.01,2013-02-15 13:48:00,
2013-02-15 07:54:00,15.5,11.5,30.39,WSW,249,0.0,3.0,84,0.00,,---,0.00,VWS V14.01,2013-02-15 13:54:00,
2013-02-15 08:00:00,15.9,11.7,30.39,WSW,249,0.0,3.0,83,0.00,,---,0.00,VWS V14.01,2013-02-15 14:00:00,
2013-02-15 08:06:00,16.3,12.1,30.39,WSW,249,0.0,0.0,83,0.00,,---,0.00,VWS V14.01,2013-02-15 14:06:00,
2013-02-15 08:12:00,16.9,12.6,30.40,WSW,249,0.0,0.0,83,0.00,,---,0.00,VWS V14.01,2013-02-15 14:12:00,
2013-02-15 08:18:00,17.7,13.4,30.40,WSW,249,0.0,2.0,83,0.00,,---,0.00,VWS V14.01,2013-02-15 14:18:00,
2013-02-15 08:24:00,18.2,13.6,30.40,WSW,249,0.0,2.0,82,0.00,,---,0.00,VWS V14.01,2013-02-15 14:24:00,
2013-02-15 08:30:00,18.6,13.8,30.40,WSW,249,1.0,3.0,81,0.00,,---,0.00,VWS V14.01,2013-02-15 14:30:00,
2013-02-15 08:36:00,19.0,13.9,30.40,WSW,249,0.0,2.0,80,0.00,,---,0.00,VWS V14.01,2013-02-15 14:36:00,
2013-02-15 08:42:00,19.7,14.5,30.40,WSW,257,1.0,4.0,80,0.00,,---,0.00,VWS V14.01,2013-02-15 14:42:00,
2013-02-15 08:48:00,20.7,15.5,30.41,WNW,283,9.0,9.0,80,0.00,,---,0.00,VWS V14.01,2013-02-15 14:48:00,
2013-02-15 08:54:00,21.5,15.7,30.41,West,279,3.0,9.0,78,0.00,,---,0.00,VWS V14.01,2013-02-15 14:54:00,
2013-02-15 09:00:00,22.0,15.9,30.41,WNW,285,3.0,9.0,77,0.00,,---,0.00,VWS V14.01,2013-02-15 15:00:00,
2013-02-15 09:06:00,22.5,16.4,30.41,NW,310,6.0,7.0,77,0.00,,---,0.00,VWS V14.01,2013-02-15 15:06:00,
2013-02-15 09:12:00,22.9,16.5,30.41,NW,304,4.0,10.0,76,0.00,,---,0.00,VWS V14.01,2013-02-15 15:12:00,
2013-02-15 09:18:00,23.4,17.0,30.41,WNW,284,5.0,10.0,76,0.00,,---,0.00,VWS V14.01,2013-02-15 15:18:00,
2013-02-15 09:24:00,23.9,17.1,30.41,West,279,6.0,10.0,75,0.00,,---,0.00,VWS V14.01,2013-02-15 15:24:00,
2013-02-15 09:30:00,24.2,17.1,30.41,West,269,3.0,10.0,74,0.00,,---,0.00,VWS V14.01,2013-02-15 15:30:00,
2013-02-15 09:36:00,24.3,17.2,30.40,West,278,0.0,9.0,74,0.01,,---,0.01,VWS V14.01,2013-02-15 15:36:00,
2013-02-15 09:42:00,24.6,17.8,30.40,WNW,285,4.0,9.0,75,0.01,,---,0.01,VWS V14.01,2013-02-15 15:42:00,
2013-02-15 09:48:00,24.9,17.8,30.40,WNW,290,5.0,9.0,74,0.01,,---,0.01,VWS V14.01,2013-02-15 15:48:00,
2013-02-15 09:55:00,25.2,18.1,30.40,WNW,294,2.0,9.0,74,0.01,,---,0.01,VWS V14.01,2013-02-15 15:55:00,
2013-02-15 10:01:00,25.4,17.6,30.40,WNW,290,5.0,11.0,72,0.01,,---,0.01,VWS V14.01,2013-02-15 16:01:00,
2013-02-15 10:07:00,25.2,17.1,30.40,West,280,5.0,8.0,71,0.01,,---,0.01,VWS V14.01,2013-02-15 16:07:00,
2013-02-15 10:13:00,25.5,18.1,30.40,WNW,285,4.0,10.0,73,0.01,,---,0.01,VWS V14.01,2013-02-15 16:13:00,
2013-02-15 10:19:00,26.6,19.4,30.40,WNW,294,2.0,10.0,74,0.01,,---,0.01,VWS V14.01,2013-02-15 16:19:00,
2013-02-15 10:25:00,27.8,19.6,30.40,WNW,290,4.0,10.0,71,0.01,,---,0.01,VWS V14.01,2013-02-15 16:25:00,
2013-02-15 10:37:00,28.3,18.8,30.40,WNW,285,5.0,5.0,67,0.01,,---,0.01,VWS V14.01,2013-02-15 16:37:00,
2013-02-15 10:43:00,28.8,19.2,30.40,WNW,284,5.0,7.0,67,0.01,,---,0.01,VWS V14.01,2013-02-15 16:43:00,
2013-02-15 10:49:00,29.4,19.1,30.40,WNW,292,4.0,8.0,65,0.01,,---,0.01,VWS V14.01,2013-02-15 16:49:00,
2013-02-15 10:55:00,29.6,18.6,30.40,WNW,291,4.0,10.0,63,0.01,,---,0.01,VWS V14.01,2013-02-15 16:55:00,
2013-02-15 11:01:00,29.6,18.6,30.41,WNW,296,2.0,10.0,63,0.02,,---,0.02,VWS V14.01,2013-02-15 17:01:00,
2013-02-15 11:07:00,29.4,18.0,30.41,NW,309,2.0,10.0,62,0.01,,---,0.02,VWS V14.01,2013-02-15 17:07:00,
2013-02-15 11:13:00,29.5,18.8,30.40,West,279,3.0,10.0,64,0.01,,---,0.02,VWS V14.01,2013-02-15 17:13:00,
2013-02-15 11:19:00,29.8,18.4,30.40,WNW,292,7.0,11.0,62,0.01,,---,0.02,VWS V14.01,2013-02-15 17:19:00,
2013-02-15 11:25:00,29.9,18.1,30.41,WNW,292,4.0,11.0,61,0.01,,---,0.02,VWS V14.01,2013-02-15 17:25:00,
2013-02-15 11:31:00,30.1,18.3,30.41,West,271,6.0,11.0,61,0.01,,---,0.02,VWS V14.01,2013-02-15 17:31:00,
2013-02-15 11:37:00,30.3,18.1,30.40,West,273,5.0,11.0,60,0.00,,---,0.02,VWS V14.01,2013-02-15 17:37:00,
2013-02-15 11:43:00,30.5,18.3,30.40,NW,322,8.0,11.0,60,0.00,,---,0.02,VWS V14.01,2013-02-15 17:43:00,
2013-02-15 11:49:00,30.4,18.2,30.40,NNW,329,5.0,11.0,60,0.00,,---,0.02,VWS V14.01,2013-02-15 17:49:00,
2013-02-15 11:55:00,30.3,18.5,30.39,NNW,333,5.0,11.0,61,0.00,,---,0.02,VWS V14.01,2013-02-15 17:55:00,
2013-02-15 12:01:00,30.3,17.7,30.39,WNW,284,5.0,11.0,59,0.00,,---,0.02,VWS V14.01,2013-02-15 18:01:00,
2013-02-15 12:07:00,30.3,18.1,30.39,WNW,299,3.0,6.0,60,0.00,,---,0.02,VWS V14.01,2013-02-15 18:07:00,
2013-02-15 12:13:00,30.4,17.8,30.39,NNW,334,5.0,7.0,59,0.00,,---,0.02,VWS V14.01,2013-02-15 18:13:00,
2013-02-15 12:19:00,30.1,18.3,30.39,NW,306,5.0,7.0,61,0.00,,---,0.02,VWS V14.01,2013-02-15 18:19:00,
2013-02-15 12:25:00,30.5,19.0,30.39,NW,321,5.0,7.0,62,0.00,,---,0.02,VWS V14.01,2013-02-15 18:25:00,
2013-02-15 12:31:00,30.9,19.0,30.38,NW,306,4.0,7.0,61,0.00,,---,0.02,VWS V14.01,2013-02-15 18:31:00,
2013-02-15 12:36:00,31.1,19.2,30.38,WNW,302,1.0,6.0,61,0.00,,---,0.02,VWS V14.01,2013-02-15 18:36:00,
2013-02-15 12:42:00,31.3,18.6,30.38,NW,306,1.0,6.0,59,0.00,,---,0.02,VWS V14.01,2013-02-15 18:42:00,
2013-02-15 12:48:00,31.3,19.0,30.37,NW,321,5.0,7.0,60,0.00,,---,0.02,VWS V14.01,2013-02-15 18:48:00,
2013-02-15 12:54:00,31.2,18.2,30.37,NW,324,2.0,7.0,58,0.00,,---,0.02,VWS V14.01,2013-02-15 18:54:00,
2013-02-15 13:00:00,31.4,20.3,30.37,WNW,295,2.0,7.0,63,0.00,,---,0.02,VWS V14.01,2013-02-15 19:00:00,
2013-02-15 13:06:00,31.9,20.4,30.36,WNW,288,1.0,5.0,62,0.00,,---,0.02,VWS V14.01,2013-02-15 19:06:00,
2013-02-15 13:12:00,32.4,19.7,30.36,WNW,294,3.0,5.0,59,0.00,,---,0.02,VWS V14.01,2013-02-15 19:12:00,
2013-02-15 13:18:00,32.5,19.8,30.36,NNW,334,3.0,5.0,59,0.00,,---,0.02,VWS V14.01,2013-02-15 19:18:00,
2013-02-15 13:24:00,32.3,19.2,30.36,NW,310,1.0,5.0,58,0.00,,---,0.02,VWS V14.01,2013-02-15 19:24:00,
2013-02-15 13:30:00,32.1,18.6,30.35,NW,310,0.0,5.0,57,0.00,,---,0.02,VWS V14.01,2013-02-15 19:30:00,
2013-02-15 13:36:00,31.7,17.4,30.35,NNW,329,2.0,5.0,55,0.00,,---,0.02,VWS V14.01,2013-02-15 19:36:00,
2013-02-15 13:42:00,31.4,19.1,30.35,West,280,1.0,5.0,60,0.00,,---,0.02,VWS V14.01,2013-02-15 19:42:00,
2013-02-15 13:48:00,31.8,19.5,30.35,West,280,2.0,5.0,60,0.00,,---,0.02,VWS V14.01,2013-02-15 19:48:00,
2013-02-15 13:54:00,32.4,20.1,30.35,West,280,0.0,5.0,60,0.00,,---,0.02,VWS V14.01,2013-02-15 19:54:00,
2013-02-15 14:00:00,32.0,18.5,30.35,West,273,0.0,5.0,57,0.00,,---,0.02,VWS V14.01,2013-02-15 20:00:00,
2013-02-15 14:06:00,31.1,17.7,30.35,West,268,2.0,3.0,57,0.00,,---,0.02,VWS V14.01,2013-02-15 20:06:00,
2013-02-15 14:12:00,30.7,18.9,30.35,West,269,2.0,3.0,61,0.00,,---,0.02,VWS V14.01,2013-02-15 20:12:00,
2013-02-15 14:18:00,30.7,19.2,30.35,West,269,0.0,4.0,62,0.00,,---,0.02,VWS V14.01,2013-02-15 20:18:00,
2013-02-15 14:24:00,31.3,20.2,30.35,West,281,2.0,7.0,63,0.00,,---,0.02,VWS V14.01,2013-02-15 20:24:00,
2013-02-15 14:30:00,31.7,19.4,30.35,SW,225,1.0,7.0,60,0.00,,---,0.02,VWS V14.01,2013-02-15 20:30:00,
2013-02-15 14:36:00,31.1,19.2,30.35,SW,215,0.0,3.0,61,0.00,,---,0.02,VWS V14.01,2013-02-15 20:36:00,
2013-02-15 14:42:00,30.4,19.0,30.34,SSW,211,2.0,5.0,62,0.00,,---,0.02,VWS V14.01,2013-02-15 20:42:00,
2013-02-15 14:48:00,30.6,19.9,30.34,WNW,290,0.0,8.0,64,0.00,,---,0.02,VWS V14.01,2013-02-15 20:48:00,
2013-02-15 14:54:00,31.1,20.0,30.33,West,281,0.0,8.0,63,0.00,,---,0.02,VWS V14.01,2013-02-15 20:54:00,
2013-02-15 15:01:00,31.6,20.1,30.34,West,281,0.0,8.0,62,0.00,,---,0.02,VWS V14.01,2013-02-15 21:01:00,
2013-02-15 15:07:00,32.2,20.7,30.33,West,279,0.0,2.0,62,0.00,,---,0.02,VWS V14.01,2013-02-15 21:07:00,
2013-02-15 15:13:00,32.6,20.3,30.33,West,273,2.0,3.0,60,0.00,,---,0.02,VWS V14.01,2013-02-15 21:13:00,
2013-02-15 15:19:00,33.3,21.7,30.34,WSW,238,0.0,3.0,62,0.00,,---,0.02,VWS V14.01,2013-02-15 21:19:00,
2013-02-15 15:25:00,33.6,21.2,30.34,WSW,237,0.0,4.0,60,0.00,,---,0.02,VWS V14.01,2013-02-15 21:25:00,
2013-02-15 15:31:00,33.5,21.1,30.33,WSW,237,0.0,4.0,60,0.00,,---,0.02,VWS V14.01,2013-02-15 21:31:00,
2013-02-15 15:37:00,33.3,20.9,30.33,WSW,238,0.0,4.0,60,0.00,,---,0.02,VWS V14.01,2013-02-15 21:37:00,
2013-02-15 15:43:00,32.9,20.5,30.33,WSW,237,0.0,4.0,60,0.00,,---,0.02,VWS V14.01,2013-02-15 21:43:00,
2013-02-15 15:49:00,32.5,20.9,30.33,WSW,240,2.0,4.0,62,0.00,,---,0.02,VWS V14.01,2013-02-15 21:49:00,
2013-02-15 15:55:00,32.4,20.9,30.33,WSW,240,0.0,4.0,62,0.00,,---,0.02,VWS V14.01,2013-02-15 21:55:00,
2013-02-15 16:01:00,32.3,20.4,30.33,WSW,240,0.0,4.0,61,0.00,,---,0.02,VWS V14.01,2013-02-15 22:01:00,
2013-02-15 16:07:00,32.0,21.6,30.33,WSW,240,0.0,1.0,65,0.00,,---,0.02,VWS V14.01,2013-02-15 22:07:00,
2013-02-15 16:13:00,31.5,21.1,30.33,WSW,240,0.0,2.0,65,0.00,,---,0.02,VWS V14.01,2013-02-15 22:13:00,
2013-02-15 16:19:00,30.9,21.2,30.33,WSW,240,1.0,2.0,67,0.00,,---,0.02,VWS V14.01,2013-02-15 22:19:00,
2013-02-15 16:25:00,30.4,21.8,30.34,WSW,241,0.0,3.0,70,0.00,,---,0.02,VWS V14.01,2013-02-15 22:25:00,
2013-02-15 16:31:00,30.0,22.4,30.34,WNW,283,3.0,6.0,73,0.00,,---,0.02,VWS V14.01,2013-02-15 22:31:00,
2013-02-15 16:37:00,29.2,23.2,30.35,WNW,290,2.0,8.0,78,0.00,,---,0.02,VWS V14.01,2013-02-15 22:37:00,
2013-02-15 16:43:00,28.6,23.2,30.35,West,281,2.0,8.0,80,0.00,,---,0.02,VWS V14.01,2013-02-15 22:43:00,
2013-02-15 16:49:00,28.0,23.2,30.34,West,280,0.0,8.0,82,0.00,,---,0.02,VWS V14.01,2013-02-15 22:49:00,
2013-02-15 16:55:00,27.6,23.1,30.34,West,280,0.0,8.0,83,0.00,,---,0.02,VWS V14.01,2013-02-15 22:55:00,
2013-02-15 17:01:00,27.5,23.3,30.34,West,280,0.0,8.0,84,0.00,,---,0.02,VWS V14.01,2013-02-15 23:01:00,
2013-02-15 17:07:00,27.3,23.4,30.34,West,281,0.0,0.0,85,0.00,,---,0.02,VWS V14.01,2013-02-15 23:07:00,
2013-02-15 17:14:00,27.3,23.7,30.34,West,280,0.0,0.0,86,0.00,,---,0.02,VWS V14.01,2013-02-15 23:14:00,
2013-02-15 17:20:00,27.4,23.8,30.34,West,280,0.0,0.0,86,0.00,,---,0.02,VWS V14.01,2013-02-15 23:20:00,
2013-02-15 17:26:00,27.3,23.7,30.34,West,280,0.0,0.0,86,0.00,,---,0.02,VWS V14.01,2013-02-15 23:26:00,
2013-02-15 17:31:00,27.3,23.7,30.34,West,281,0.0,0.0,86,0.00,,---,0.02,VWS V14.01,2013-02-15 23:31:00,
2013-02-15 17:36:00,27.2,23.9,30.34,West,280,0.0,0.0,87,0.00,,---,0.02,VWS V14.01,2013-02-15 23:36:00,
2013-02-15 17:42:00,27.0,23.6,30.35,West,280,1.0,2.0,87,0.00,,---,0.02,VWS V14.01,2013-02-15 23:42:00,
2013-02-15 17:48:00,26.9,23.8,30.35,North,355,2.0,4.0,88,0.00,,---,0.02,VWS V14.01,2013-02-15 23:48:00,
2013-02-15 17:54:00,26.4,23.3,30.35,NNE,16,1.0,4.0,88,0.00,,---,0.02,VWS V14.01,2013-02-15 23:54:00,
2013-02-15 18:00:00,26.2,23.1,30.34,NNE,15,0.0,4.0,88,0.00,,---,0.02,VWS V14.01,2013-02-16 00:00:00,
2013-02-15 18:06:00,26.0,22.9,30.34,NNE,14,0.0,0.0,88,0.00,,---,0.02,VWS V14.01,2013-02-16 00:06:00,
2013-02-15 18:12:00,25.8,22.7,30.35,NNE,14,0.0,0.0,88,0.00,,---,0.02,VWS V14.01,2013-02-16 00:12:00,
2013-02-15 18:18:00,25.8,22.7,30.35,NNE,15,0.0,0.0,88,0.00,,---,0.02,VWS V14.01,2013-02-16 00:18:00,
2013-02-15 18:24:00,25.8,23.0,30.35,NNE,14,0.0,1.0,89,0.00,,---,0.02,VWS V14.01,2013-02-16 00:24:00,
2013-02-15 18:30:00,25.8,23.0,30.36,NNE,15,0.0,1.0,89,0.00,,---,0.02,VWS V14.01,2013-02-16 00:30:00,
2013-02-15 18:36:00,25.8,23.0,30.36,NNE,14,0.0,1.0,89,0.00,,---,0.02,VWS V14.01,2013-02-16 00:36:00,
2013-02-15 18:42:00,25.7,22.9,30.36,NNE,15,1.0,4.0,89,0.00,,---,0.02,VWS V14.01,2013-02-16 00:42:00,
2013-02-15 18:48:00,25.8,23.0,30.36,NNW,334,3.0,4.0,89,0.00,,---,0.02,VWS V14.01,2013-02-16 00:48:00,
2013-02-15 18:54:00,25.8,23.0,30.36,North,360,4.0,7.0,89,0.00,,---,0.02,VWS V14.01,2013-02-16 00:54:00,
2013-02-15 19:00:00,25.7,22.9,30.36,North,5,1.0,7.0,89,0.00,,---,0.02,VWS V14.01,2013-02-16 01:00:00,
2013-02-15 19:06:00,25.4,22.6,30.37,North,355,2.0,12.0,89,0.00,,---,0.02,VWS V14.01,2013-02-16 01:06:00,
2013-02-15 19:12:00,25.2,22.1,30.37,North,10,3.0,12.0,88,0.00,,---,0.02,VWS V14.01,2013-02-16 01:12:00,
2013-02-15 19:18:00,25.1,22.0,30.37,NNE,19,4.0,12.0,88,0.00,,---,0.02,VWS V14.01,2013-02-16 01:18:00,
2013-02-15 19:24:00,25.0,22.0,30.38,NNE,13,4.0,12.0,88,0.00,,---,0.02,VWS V14.01,2013-02-16 01:24:00,
2013-02-15 19:30:00,24.8,22.0,30.38,North,10,3.0,12.0,89,0.00,,---,0.02,VWS V14.01,2013-02-16 01:30:00,
2013-02-15 19:36:00,24.5,21.7,30.38,North,350,6.0,10.0,89,0.00,,---,0.02,VWS V14.01,2013-02-16 01:36:00,
2013-02-15 19:43:00,24.3,21.5,30.38,NNW,346,7.0,10.0,89,0.00,,---,0.02,VWS V14.01,2013-02-16 01:43:00,
2013-02-15 19:49:00,24.2,21.7,30.39,NNE,17,3.0,10.0,90,0.00,,---,0.02,VWS V14.01,2013-02-16 01:49:00,
2013-02-15 19:55:00,24.0,21.5,30.39,North,5,7.0,11.0,90,0.00,,---,0.02,VWS V14.01,2013-02-16 01:55:00,
2013-02-15 20:01:00,23.9,21.4,30.39,NNW,344,2.0,11.0,90,0.00,,---,0.02,VWS V14.01,2013-02-16 02:01:00,
2013-02-15 20:07:00,24.0,21.8,30.39,NW,320,7.0,7.0,91,0.00,,---,0.02,VWS V14.01,2013-02-16 02:07:00,
2013-02-15 20:13:00,24.0,21.8,30.39,NNW,334,8.0,8.0,91,0.00,,---,0.02,VWS V14.01,2013-02-16 02:13:00,
2013-02-15 20:19:00,23.9,21.7,30.39,NW,319,7.0,10.0,91,0.00,,---,0.02,VWS V14.01,2013-02-16 02:19:00,
2013-02-15 20:25:00,23.8,21.6,30.39,NNW,343,5.0,11.0,91,0.00,,---,0.02,VWS V14.01,2013-02-16 02:25:00,
2013-02-15 20:31:00,23.4,21.2,30.39,NNW,345,7.0,14.0,91,0.00,,---,0.02,VWS V14.01,2013-02-16 02:31:00,
2013-02-15 20:37:00,22.7,20.2,30.39,NNW,338,6.0,12.0,90,0.00,,---,0.02,VWS V14.01,2013-02-16 02:37:00,
2013-02-15 20:43:00,22.3,19.8,30.39,NNW,348,3.0,12.0,90,0.00,,---,0.02,VWS V14.01,2013-02-16 02:43:00,
2013-02-15 20:49:00,21.8,19.3,30.39,North,360,4.0,12.0,90,0.00,,---,0.02,VWS V14.01,2013-02-16 02:49:00,
2013-02-15 20:55:00,21.3,18.8,30.39,NNW,336,3.0,12.0,90,0.00,,---,0.02,VWS V14.01,2013-02-16 02:55:00,
2013-02-15 21:01:00,20.9,18.4,30.40,NNW,340,3.0,12.0,90,0.00,,---,0.02,VWS V14.01,2013-02-16 03:01:00,
2013-02-15 21:07:00,20.4,17.7,30.40,NNW,344,1.0,6.0,89,0.00,,---,0.02,VWS V14.01,2013-02-16 03:07:00,
2013-02-15 21:13:00,19.9,17.2,30.40,North,350,2.0,6.0,89,0.00,,---,0.02,VWS V14.01,2013-02-16 03:13:00,
2013-02-15 21:19:00,19.7,17.0,30.40,North,360,2.0,6.0,89,0.00,,---,0.02,VWS V14.01,2013-02-16 03:19:00,
2013-02-15 21:25:00,19.7,17.2,30.39,North,10,1.0,6.0,90,0.00,,---,0.02,VWS V14.01,2013-02-16 03:25:00,
2013-02-15 21:31:00,19.5,16.8,30.40,North,9,0.0,6.0,89,0.00,,---,0.02,VWS V14.01,2013-02-16 03:31:00,
2013-02-15 21:37:00,18.9,16.2,30.40,North,9,0.0,2.0,89,0.00,,---,0.02,VWS V14.01,2013-02-16 03:37:00,
2013-02-15 21:43:00,18.2,15.5,30.40,NNW,329,0.0,3.0,89,0.00,,---,0.02,VWS V14.01,2013-02-16 03:43:00,
2013-02-15 21:49:00,17.6,14.7,30.40,NNW,329,0.0,3.0,88,0.00,,---,0.02,VWS V14.01,2013-02-16 03:49:00,
2013-02-15 21:56:00,17.2,14.5,30.40,NNW,329,0.0,3.0,89,0.00,,---,0.02,VWS V14.01,2013-02-16 03:56:00,
2013-02-15 22:01:00,17.0,14.3,30.41,NNW,327,0.0,3.0,89,0.00,,---,0.02,VWS V14.01,2013-02-16 04:01:00,
2013-02-15 22:06:00,16.8,14.1,30.41,NNW,327,4.0,4.0,89,0.00,,---,0.02,VWS V14.01,2013-02-16 04:06:00,
2013-02-15 22:12:00,16.7,14.0,30.41,NW,321,0.0,4.0,89,0.00,,---,0.02,VWS V14.01,2013-02-16 04:12:00,
2013-02-15 22:18:00,16.5,13.8,30.41,NW,321,0.0,4.0,89,0.00,,---,0.02,VWS V14.01,2013-02-16 04:18:00,
2013-02-15 22:24:00,16.3,13.6,30.41,West,278,0.0,5.0,89,0.00,,---,0.02,VWS V14.01,2013-02-16 04:24:00,
2013-02-15 22:30:00,16.0,13.3,30.41,West,277,1.0,5.0,89,0.00,,---,0.02,VWS V14.01,2013-02-16 04:30:00,
2013-02-15 22:36:00,15.5,12.8,30.41,West,278,0.0,1.0,89,0.00,,---,0.02,VWS V14.01,2013-02-16 04:36:00,
2013-02-15 22:42:00,15.3,12.6,30.41,West,278,0.0,4.0,89,0.00,,---,0.02,VWS V14.01,2013-02-16 04:42:00,
2013-02-15 22:48:00,15.3,12.6,30.41,West,278,0.0,4.0,89,0.00,,---,0.02,VWS V14.01,2013-02-16 04:48:00,
2013-02-15 22:54:00,15.3,12.6,30.41,West,280,0.0,4.0,89,0.00,,---,0.02,VWS V14.01,2013-02-16 04:54:00,
2013-02-15 23:00:00,15.3,12.6,30.41,West,280,0.0,4.0,89,0.00,,---,0.02,VWS V14.01,2013-02-16 05:00:00,
2013-02-15 23:01:00,15.3,12.6,30.41,West,280,0.0,4.0,89,0.00,,---,0.02,VWS V14.01,2013-02-16 05:01:00,
2013-02-15 23:04:00,15.4,12.7,30.40,West,280,0.0,1.0,89,0.00,,---,0.02,VWS V14.01,2013-02-16 05:04:00,
2013-02-15 23:10:00,15.4,13.0,30.41,West,280,0.0,2.0,90,0.00,,---,0.02,VWS V14.01,2013-02-16 05:10:00,
2013-02-15 23:12:00,15.4,13.0,30.40,West,280,0.0,2.0,90,0.00,,---,0.02,VWS V14.01,2013-02-16 05:12:00,
2013-02-15 23:18:00,15.5,13.1,30.40,West,280,0.0,2.0,90,0.00,,---,0.02,VWS V14.01,2013-02-16 05:18:00,
2013-02-15 23:24:00,15.6,13.2,30.40,West,280,0.0,2.0,90,0.00,,---,0.02,VWS V14.01,2013-02-16 05:24:00,
2013-02-15 23:28:00,15.5,13.1,30.40,West,280,0.0,2.0,90,0.00,,---,0.02,VWS V14.01,2013-02-16 05:28:00,
2013-02-15 23:34:00,15.3,12.6,30.40,West,280,0.0,2.0,89,0.00,,---,0.02,VWS V14.01,2013-02-16 05:34:00,
2013-02-15 23:40:00,15.1,12.4,30.40,West,280,2.0,2.0,89,0.00,,---,0.02,VWS V14.01,2013-02-16 05:40:00,
2013-02-15 23:46:00,15.0,12.4,30.40,West,280,0.0,3.0,89,0.00,,---,0.02,VWS V14.01,2013-02-16 05:46:00,
2013-02-15 23:52:00,14.9,12.2,30.40,West,280,0.0,3.0,89,0.00,,---,0.02,VWS V14.01,2013-02-16 05:52:00,
2013-02-15 23:58:00,14.6,11.9,30.40,West,280,0.0,3.0,89,0.00,,---,0.02,VWS V14.01,2013-02-16 05:58:00,